Location: Franzen
(48.6167°N, 15.3833°E)
Time: 14:21:35
(UTC+00:00)

ARIANE 5 R/B - Pass Details

Date: 30 July 2021
Orbit: 622 x 654 km, 98.1° (Epoch: 23 September)

Event Time Altitude Azimuth Distance (km) Brightness Sun altitude
Exits shadow 19:12:33 - 119° (ESE) 2,328 4.8 -5.5°
Reaches altitude 10° 19:13:24 10° 113° (ESE) 2,045 4.6 -5.6°
Maximum altitude 19:16:51 23° 63° (ENE) 1,387 4.1 -6.1°
Drops below altitude 10° 19:20:18 10° 12° (NNE) 2,041 5.6 -6.5°
Sets 19:22:51 0° 357° (N) 2,948 6.7 -6.9°
